Volver al catálogo

STARLINK-33979

ActivoComunicacionesVLEO
NORAD 63867·PAYLOAD·🇺🇸 United States

Lanzado May 10, 2025 desde Vandenberg Space Force Base

Loading…

Próximos Pases (próximas 24 horas)

TLE

ActualizadoSource: CelesTrak SupGP

Época: Sep 14, 2026, 20:35 UTC

1 63867C 25094D   26257.85812500 -.00045065  00000+0 -15670-2 0  2570
2 63867  69.9989 115.9081 0003247 270.2277 276.3699 15.29615767    12

Sigue STARLINK-33979 en tiempo real con AllMySat

Download on the App Store